Location: Atherton
(17.2661°S, 145.4859°E)
Time: 22:53:41
(UTC+10:00)

Vanguard 1 - Pass Details

Date: 01 July 2025
Orbit: 649 x 3822 km, 34.2° (Epoch: 17 July)

Event Time Altitude Azimuth Distance (km) Brightness Sun altitude
Rises 20:36:55 0° 256° (WSW) 7,153 15.2 -37.2°
Reaches altitude 10° 20:43:15 10° 246° (WSW) 5,618 14.4 -38.6°
Enters shadow 20:55:37 32° 194° (SSW) 2,945 12.3 -41.5°
Maximum altitude 20:56:08 32° 189° (S) 2,887 - -41.6°
Drops below altitude 10° 21:03:51 10° 128° (SE) 3,342 - -43.3°
Sets 21:06:33 0° 116° (ESE) 3,989 - -44.0°
